Location: Kaiser
(34.0939°N, 117.4889°W)
Time: 03:34:49
(UTC+00:00)

Meteor 2-5 Rocket - Pass Details

Date: 29 October 2020
Orbit: 834 x 911 km, 81.2° (Epoch: 26 November)

Event Time Altitude Azimuth Distance (km) Brightness Sun altitude
Rises 12:43:09 0° 209° (SSW) 3,411 6.6 -18.0°
Reaches altitude 10° 12:45:44 10° 217° (SW) 2,490 5.8 -17.4°
Maximum altitude 12:50:55 37° 284° (WNW) 1,339 4.2 -16.4°
Drops below altitude 10° 12:56:14 10° 350° (N) 2,552 6.0 -15.3°
Sets 12:58:55 0° 359° (N) 3,507 6.8 -14.7°
